This is the latest recevied weather packets stored in our database for station/object N4RCT. If no packets are shown the sender has not sent any weather packets the latest 10 day(s).
| Time | Temp. | Humidity | Pressure | Rain* | Wind** | Luminosity | Snow |
|---|---|---|---|---|---|---|---|
| 1777812271 | 10.56° C | 83% | 1020.1 hPa | 0 mm | - | 195 W/m² | - |
| 1777811969 | 10.56° C | 82% | 1020 hPa | 0 mm | - | 186 W/m² | - |
| 1777811668 | 10.56° C | 82% | 1020 hPa | 0 mm | - | 151 W/m² | - |
| 1777811362 | 10.56° C | 80% | 1020.1 hPa | 0 mm | - | 154 W/m² | - |
| 1777811060 | 10.56° C | 82% | 1019.8 hPa | 0 mm | - | 134 W/m² | - |
| 1777810757 | 11.11° C | 81% | 1020.1 hPa | 0 mm | - | 130 W/m² | - |
| 1777810454 | 10.56° C | 82% | 1019.8 hPa | 0 mm | - | 67 W/m² | - |
| 1777810150 | 9.44° C | 85% | 1020 hPa | 0 mm | - | 65 W/m² | - |
| 1777809847 | 8.89° C | 88% | 1019.9 hPa | 0 mm | - | 55 W/m² | - |
| 1777809545 | 7.78° C | 93% | 1019.9 hPa | 0 mm | - | 49 W/m² | - |
| 1777809243 | 7.22° C | 97% | 1019.9 hPa | 0 mm | - | 46 W/m² | - |
| 1777808940 | 6.11° C | 97% | 1019.7 hPa | 0 mm | - | 39 W/m² | - |
| 1777808636 | 5° C | 97% | 1019.8 hPa | 0 mm | - | 34 W/m² | - |
| 1777808333 | 4.44° C | 97% | 1019.8 hPa | 0 mm | - | 23 W/m² | - |
| 1777808032 | 4.44° C | 97% | 1020 hPa | 0 mm | - | 20 W/m² | - |
| 1777807729 | 4.44° C | 97% | 1019.8 hPa | 0 mm | - | 18 W/m² | - |
| 1777807427 | 4.44° C | 97% | 1019.8 hPa | 0 mm | - | 16 W/m² | - |
| 1777807122 | 4.44° C | 97% | 1019.7 hPa | 0 mm | - | 12 W/m² | - |
| 1777806820 | 4.44° C | 97% | 1019.6 hPa | 0 mm | - | 11 W/m² | - |
| 1777806516 | 4.44° C | 97% | 1019.5 hPa | 0 mm | - | 8 W/m² | - |
| 1777806212 | 3.89° C | 97% | 1019.5 hPa | 0 mm | - | 6 W/m² | - |
| 1777805909 | 3.89° C | 97% | 1019.4 hPa | 0 mm | - | 4 W/m² | - |
| 1777805606 | 3.89° C | 97% | 1019.3 hPa | 0 mm | - | 2 W/m² | - |
| 1777805304 | 4.44° C | 97% | 1019.3 hPa | 0 mm | - | 0 W/m² | - |
| 1777805001 | 3.89° C | 96% | 1019.2 hPa | 0 mm | - | 0 W/m² | - |
* Rain latest hour (hover to see other rain measurements)
** Current wind speed in m/s (hover to see current wind gust speed)